Time,TemperatureF,DewpointF,PressureIn,WindDirection,WindDirectionDegrees,WindSpeedMPH,WindSpeedGustMPH,Humidity,HourlyPrecipIn,Conditions,Clouds,dailyrainin,SoftwareType,DateUTC
2013-01-15 00:03:00,41.0,39.4,30.09,NNW,333,4.0,10.0,94,0.00,,,0.00,meteohub,2013-01-15 06:03:00,
2013-01-15 00:08:00,41.2,39.6,30.10,NNW,348,2.0,10.0,94,0.00,,,0.00,meteohub,2013-01-15 06:08:00,
2013-01-15 00:13:00,41.2,39.6,30.09,NNE,15,4.0,10.0,94,0.00,,,0.00,meteohub,2013-01-15 06:13:00,
2013-01-15 00:18:00,41.0,39.4,30.09,NNE,31,2.0,9.0,94,0.00,,,0.00,meteohub,2013-01-15 06:18:00,
2013-01-15 00:23:00,40.8,39.2,30.09,North,5,2.0,9.0,94,0.00,,,0.00,meteohub,2013-01-15 06:23:00,
2013-01-15 00:28:00,40.8,39.6,30.07,NNE,33,4.0,9.0,95,0.00,,,0.00,meteohub,2013-01-15 06:28:00,
2013-01-15 00:33:00,40.8,39.6,30.08,NE,44,3.0,8.0,95,0.00,,,0.00,meteohub,2013-01-15 06:33:00,
2013-01-15 00:38:00,40.8,39.6,30.08,NE,35,4.0,9.0,95,0.00,,,0.00,meteohub,2013-01-15 06:38:00,
2013-01-15 00:43:00,40.8,39.6,30.07,NE,38,6.0,9.0,95,0.00,,,0.00,meteohub,2013-01-15 06:43:00,
2013-01-15 00:48:00,40.8,39.6,30.07,NNE,24,4.0,9.0,95,0.00,,,0.00,meteohub,2013-01-15 06:48:00,
2013-01-15 00:53:00,40.8,39.6,30.07,NNE,28,3.0,10.0,95,0.00,,,0.00,meteohub,2013-01-15 06:53:00,
2013-01-15 00:58:00,40.8,39.6,30.07,NE,38,6.0,10.0,95,0.00,,,0.00,meteohub,2013-01-15 06:58:00,
2013-01-15 01:03:00,41.0,39.7,30.08,North,355,2.0,10.0,95,0.00,,,0.00,meteohub,2013-01-15 07:03:00,
2013-01-15 01:08:00,41.2,39.9,30.08,North,355,2.0,10.0,95,0.00,,,0.00,meteohub,2013-01-15 07:08:00,
2013-01-15 01:13:00,41.0,39.7,30.08,North,355,0.0,8.0,95,0.00,,,0.00,meteohub,2013-01-15 07:13:00,
2013-01-15 01:18:00,41.0,39.7,30.08,NNE,19,4.0,6.0,95,0.00,,,0.00,meteohub,2013-01-15 07:18:00,
2013-01-15 01:23:00,41.0,39.7,30.07,NNE,23,3.0,8.0,95,0.00,,,0.00,meteohub,2013-01-15 07:23:00,
2013-01-15 01:28:00,41.2,39.9,30.08,NNE,14,5.0,8.0,95,0.00,,,0.00,meteohub,2013-01-15 07:28:00,
2013-01-15 01:33:00,41.2,39.9,30.07,NE,51,1.0,9.0,95,0.00,,,0.00,meteohub,2013-01-15 07:33:00,
2013-01-15 01:38:00,41.2,39.9,30.07,NNE,19,4.0,9.0,95,0.00,,,0.00,meteohub,2013-01-15 07:38:00,
2013-01-15 01:43:00,41.4,40.1,30.07,North,11,2.0,9.0,95,0.00,,,0.00,meteohub,2013-01-15 07:43:00,
2013-01-15 01:49:00,41.4,40.1,30.06,NNE,19,4.0,8.0,95,0.00,,,0.00,meteohub,2013-01-15 07:49:00,
2013-01-15 01:54:00,41.4,40.1,30.07,NNE,21,3.0,9.0,95,0.00,,,0.00,meteohub,2013-01-15 07:54:00,
2013-01-15 01:59:00,41.4,40.1,30.07,ENE,69,2.0,9.0,95,0.00,,,0.00,meteohub,2013-01-15 07:59:00,
2013-01-15 02:04:00,41.4,40.1,30.07,North,9,6.0,9.0,95,0.00,,,0.00,meteohub,2013-01-15 08:04:00,
2013-01-15 02:09:00,41.4,40.1,30.06,NNE,15,5.0,8.0,95,0.00,,,0.00,meteohub,2013-01-15 08:09:00,
2013-01-15 02:14:00,41.4,40.1,30.07,NNE,14,2.0,8.0,95,0.00,,,0.00,meteohub,2013-01-15 08:14:00,
2013-01-15 02:19:00,41.4,40.1,30.06,NNE,19,3.0,9.0,95,0.00,,,0.00,meteohub,2013-01-15 08:19:00,
2013-01-15 02:24:00,41.5,40.3,30.06,North,5,6.0,9.0,95,0.00,,,0.00,meteohub,2013-01-15 08:24:00,
2013-01-15 02:29:00,41.5,40.3,30.06,NE,55,6.0,7.0,95,0.00,,,0.00,meteohub,2013-01-15 08:29:00,
2013-01-15 02:34:00,41.5,40.3,30.06,NNW,340,2.0,7.0,95,0.00,,,0.00,meteohub,2013-01-15 08:34:00,
2013-01-15 02:39:00,41.5,40.3,30.05,North,5,4.0,7.0,95,0.00,,,0.00,meteohub,2013-01-15 08:39:00,
2013-01-15 02:44:00,41.5,40.3,30.05,NNE,31,6.0,7.0,95,0.00,,,0.00,meteohub,2013-01-15 08:44:00,
2013-01-15 02:49:00,41.5,40.3,30.06,NE,49,4.0,7.0,95,0.00,,,0.00,meteohub,2013-01-15 08:49:00,
2013-01-15 02:54:00,41.7,40.5,30.06,NNE,18,5.0,7.0,95,0.00,,,0.00,meteohub,2013-01-15 08:54:00,
2013-01-15 02:59:00,41.7,40.5,30.06,NNE,18,3.0,7.0,95,0.00,,,0.00,meteohub,2013-01-15 08:59:00,
2013-01-15 03:04:00,41.7,40.5,30.07,North,5,2.0,7.0,95,0.00,,,0.00,meteohub,2013-01-15 09:04:00,
2013-01-15 03:09:00,41.5,40.3,30.05,North,9,4.0,7.0,95,0.00,,,0.00,meteohub,2013-01-15 09:09:00,
2013-01-15 03:14:00,41.5,40.3,30.05,North,9,3.0,8.0,95,0.00,,,0.00,meteohub,2013-01-15 09:14:00,
2013-01-15 03:19:00,41.5,40.5,30.05,NE,42,2.0,8.0,96,0.00,,,0.00,meteohub,2013-01-15 09:19:00,
2013-01-15 03:24:00,41.5,40.5,30.05,NNE,17,3.0,8.0,96,0.00,,,0.00,meteohub,2013-01-15 09:24:00,
2013-01-15 03:29:00,41.5,40.5,30.05,NNE,18,3.0,9.0,96,0.00,,,0.00,meteohub,2013-01-15 09:29:00,
2013-01-15 03:34:00,41.7,40.6,30.05,NNW,332,3.0,9.0,96,0.00,,,0.00,meteohub,2013-01-15 09:34:00,
2013-01-15 03:39:00,41.7,40.6,30.05,NNW,341,2.0,9.0,96,0.00,,,0.00,meteohub,2013-01-15 09:39:00,
2013-01-15 03:44:00,41.5,40.5,30.05,NNW,341,3.0,8.0,96,0.00,,,0.00,meteohub,2013-01-15 09:44:00,
2013-01-15 03:49:00,41.5,40.5,30.05,NNW,345,4.0,7.0,96,0.00,,,0.00,meteohub,2013-01-15 09:49:00,
2013-01-15 03:54:00,41.5,40.5,30.04,North,0,4.0,7.0,96,0.00,,,0.00,meteohub,2013-01-15 09:54:00,
2013-01-15 03:59:00,41.5,40.5,30.05,North,355,7.0,7.0,96,0.00,,,0.00,meteohub,2013-01-15 09:59:00,
2013-01-15 04:04:00,41.7,40.6,30.05,NNW,333,5.0,7.0,96,0.00,,,0.00,meteohub,2013-01-15 10:04:00,
2013-01-15 04:09:00,41.7,40.6,30.05,NW,322,5.0,7.0,96,0.00,,,0.00,meteohub,2013-01-15 10:09:00,
2013-01-15 04:14:00,41.7,40.6,30.05,NW,325,6.0,7.0,96,0.00,,,0.00,meteohub,2013-01-15 10:14:00,
2013-01-15 04:19:00,41.7,40.6,30.04,NNW,331,3.0,7.0,96,0.00,,,0.00,meteohub,2013-01-15 10:19:00,
2013-01-15 04:24:00,41.7,40.6,30.04,NNW,338,2.0,8.0,96,0.00,,,0.00,meteohub,2013-01-15 10:24:00,
2013-01-15 04:29:00,41.7,40.6,30.04,NNW,338,2.0,8.0,96,0.00,,,0.00,meteohub,2013-01-15 10:29:00,
2013-01-15 04:34:00,41.7,40.6,30.04,NNW,347,3.0,8.0,96,0.00,,,0.00,meteohub,2013-01-15 10:34:00,
2013-01-15 04:39:00,41.7,40.6,30.04,NNW,347,3.0,8.0,96,0.00,,,0.00,meteohub,2013-01-15 10:39:00,
2013-01-15 04:44:00,41.7,40.6,30.03,North,349,3.0,8.0,96,0.00,,,0.00,meteohub,2013-01-15 10:44:00,
2013-01-15 04:49:00,41.7,40.6,30.03,North,350,5.0,8.0,96,0.00,,,0.00,meteohub,2013-01-15 10:49:00,
2013-01-15 04:54:00,41.7,40.6,30.02,NE,35,4.0,8.0,96,0.00,,,0.00,meteohub,2013-01-15 10:54:00,
2013-01-15 04:59:00,41.7,40.6,30.03,NNE,24,1.0,8.0,96,0.00,,,0.00,meteohub,2013-01-15 10:59:00,
2013-01-15 05:04:00,41.9,41.2,30.03,NNW,328,2.0,8.0,97,0.00,,,0.00,meteohub,2013-01-15 11:04:00,
2013-01-15 05:09:00,42.1,41.0,30.03,NNW,345,3.0,8.0,96,0.00,,,0.00,meteohub,2013-01-15 11:09:00,
2013-01-15 05:14:00,42.1,41.4,30.01,NNE,32,6.0,7.0,97,0.00,,,0.00,meteohub,2013-01-15 11:14:00,
2013-01-15 05:19:00,42.1,41.4,30.02,NNW,346,4.0,8.0,97,0.00,,,0.00,meteohub,2013-01-15 11:19:00,
2013-01-15 05:24:00,42.1,41.4,30.03,NNW,335,5.0,8.0,97,0.00,,,0.00,meteohub,2013-01-15 11:24:00,
2013-01-15 05:29:00,42.3,41.5,30.03,NNE,13,3.0,8.0,97,0.00,,,0.00,meteohub,2013-01-15 11:29:00,
2013-01-15 05:34:00,42.3,41.2,30.03,North,5,4.0,8.0,96,0.00,,,0.00,meteohub,2013-01-15 11:34:00,
2013-01-15 05:39:00,42.3,41.5,30.04,NW,323,5.0,7.0,97,0.00,,,0.00,meteohub,2013-01-15 11:39:00,
2013-01-15 05:44:00,42.3,41.5,30.04,NW,314,5.0,9.0,97,0.00,,,0.00,meteohub,2013-01-15 11:44:00,
2013-01-15 05:49:00,42.4,41.4,30.03,NW,325,4.0,9.0,96,0.00,,,0.00,meteohub,2013-01-15 11:49:00,
2013-01-15 05:54:00,42.3,41.2,30.03,NNW,327,2.0,9.0,96,0.00,,,0.00,meteohub,2013-01-15 11:54:00,
2013-01-15 05:59:00,42.3,41.2,30.03,NNW,327,2.0,8.0,96,0.00,,,0.00,meteohub,2013-01-15 11:59:00,
2013-01-15 06:04:00,42.1,41.4,30.03,NNW,339,5.0,7.0,97,0.00,,,0.00,meteohub,2013-01-15 12:04:00,
2013-01-15 06:09:00,42.1,41.0,30.03,NNW,337,7.0,7.0,96,0.00,,,0.00,meteohub,2013-01-15 12:09:00,
2013-01-15 06:14:00,42.1,41.0,30.04,NNW,336,4.0,11.0,96,0.00,,,0.00,meteohub,2013-01-15 12:14:00,
2013-01-15 06:19:00,42.1,41.0,30.04,NNW,342,6.0,11.0,96,0.00,,,0.00,meteohub,2013-01-15 12:19:00,
2013-01-15 06:24:00,42.3,41.2,30.03,NNW,347,3.0,11.0,96,0.00,,,0.00,meteohub,2013-01-15 12:24:00,
2013-01-15 06:29:00,42.1,41.4,30.03,NNW,348,4.0,8.0,97,0.00,,,0.00,meteohub,2013-01-15 12:29:00,
2013-01-15 06:34:00,42.3,41.5,30.03,North,355,5.0,8.0,97,0.00,,,0.00,meteohub,2013-01-15 12:34:00,
2013-01-15 06:39:00,42.3,41.5,30.04,NW,312,3.0,8.0,97,0.00,,,0.00,meteohub,2013-01-15 12:39:00,
2013-01-15 06:45:00,42.3,41.5,30.03,NNW,348,5.0,8.0,97,0.00,,,0.00,meteohub,2013-01-15 12:45:00,
2013-01-15 06:49:00,42.3,41.5,30.03,NNW,348,2.0,7.0,97,0.00,,,0.00,meteohub,2013-01-15 12:49:00,
2013-01-15 06:55:00,42.3,41.5,30.04,NNW,331,4.0,7.0,97,0.00,,,0.00,meteohub,2013-01-15 12:55:00,
2013-01-15 07:00:00,42.3,41.5,30.03,NNW,342,3.0,7.0,97,0.00,,,0.00,meteohub,2013-01-15 13:00:00,
2013-01-15 07:05:00,42.3,41.5,30.04,NW,320,4.0,5.0,97,0.00,,,0.00,meteohub,2013-01-15 13:05:00,
2013-01-15 07:10:00,42.3,41.5,30.05,NW,326,3.0,7.0,97,0.00,,,0.00,meteohub,2013-01-15 13:10:00,
2013-01-15 07:15:00,42.3,41.5,30.05,NW,326,4.0,7.0,97,0.00,,,0.00,meteohub,2013-01-15 13:15:00,
2013-01-15 07:20:00,42.3,41.5,30.06,NW,326,1.0,7.0,97,0.00,,,0.00,meteohub,2013-01-15 13:20:00,
2013-01-15 07:25:00,42.4,41.7,30.05,NW,326,5.0,6.0,97,0.00,,,0.00,meteohub,2013-01-15 13:25:00,
2013-01-15 07:30:00,42.4,41.7,30.04,NNW,327,5.0,5.0,97,0.00,,,0.00,meteohub,2013-01-15 13:30:00,
2013-01-15 07:35:00,42.4,41.7,30.04,NNW,329,0.0,5.0,97,0.00,,,0.00,meteohub,2013-01-15 13:35:00,
2013-01-15 07:40:00,42.4,41.7,30.05,NW,315,5.0,6.0,97,0.00,,,0.00,meteohub,2013-01-15 13:40:00,
2013-01-15 07:45:00,42.4,41.7,30.05,NW,321,2.0,6.0,97,0.00,,,0.00,meteohub,2013-01-15 13:45:00,
2013-01-15 07:50:00,42.4,41.7,30.04,NW,321,2.0,6.0,97,0.00,,,0.00,meteohub,2013-01-15 13:50:00,
2013-01-15 07:55:00,42.4,41.7,30.05,NW,323,2.0,6.0,97,0.00,,,0.00,meteohub,2013-01-15 13:55:00,
2013-01-15 08:00:00,42.4,41.7,30.05,NW,323,3.0,6.0,97,0.00,,,0.00,meteohub,2013-01-15 14:00:00,
2013-01-15 08:05:00,42.4,41.7,30.06,NW,323,3.0,6.0,97,0.00,,,0.00,meteohub,2013-01-15 14:05:00,
2013-01-15 08:10:00,42.4,41.7,30.06,NW,323,3.0,6.0,97,0.00,,,0.00,meteohub,2013-01-15 14:10:00,
2013-01-15 08:15:00,42.4,41.7,30.05,NW,323,2.0,6.0,97,0.00,,,0.00,meteohub,2013-01-15 14:15:00,
2013-01-15 08:20:00,42.4,41.7,30.06,NW,324,0.0,6.0,97,0.00,,,0.00,meteohub,2013-01-15 14:20:00,
2013-01-15 08:25:00,42.6,41.9,30.06,NW,324,2.0,6.0,97,0.00,,,0.00,meteohub,2013-01-15 14:25:00,
2013-01-15 08:30:00,42.6,41.9,30.06,NW,324,3.0,5.0,97,0.00,,,0.00,meteohub,2013-01-15 14:30:00,
2013-01-15 08:35:00,42.6,41.9,30.06,NW,317,1.0,5.0,97,0.00,,,0.00,meteohub,2013-01-15 14:35:00,
2013-01-15 08:40:00,42.6,41.9,30.06,NW,324,3.0,6.0,97,0.00,,,0.00,meteohub,2013-01-15 14:40:00,
2013-01-15 08:45:00,42.6,41.9,30.07,NW,324,4.0,6.0,97,0.00,,,0.00,meteohub,2013-01-15 14:45:00,
2013-01-15 08:50:00,42.6,41.9,30.07,NW,325,5.0,6.0,97,0.00,,,0.00,meteohub,2013-01-15 14:50:00,
2013-01-15 08:55:00,42.6,41.9,30.07,NNW,327,4.0,6.0,97,0.00,,,0.00,meteohub,2013-01-15 14:55:00,
2013-01-15 09:00:00,42.8,42.1,30.07,NW,315,5.0,7.0,97,0.00,,,0.00,meteohub,2013-01-15 15:00:00,
2013-01-15 09:05:00,42.6,41.9,30.07,NW,315,4.0,7.0,97,0.00,,,0.00,meteohub,2013-01-15 15:05:00,
2013-01-15 09:10:00,42.6,41.9,30.07,NW,318,1.0,7.0,97,0.00,,,0.00,meteohub,2013-01-15 15:10:00,
2013-01-15 09:15:00,42.6,41.9,30.07,NW,318,4.0,6.0,97,0.00,,,0.00,meteohub,2013-01-15 15:15:00,
2013-01-15 09:20:00,42.6,41.9,30.06,NW,318,1.0,6.0,97,0.00,,,0.00,meteohub,2013-01-15 15:20:00,
2013-01-15 09:25:00,42.6,41.9,30.07,NW,318,3.0,6.0,97,0.00,,,0.00,meteohub,2013-01-15 15:25:00,
2013-01-15 09:30:00,42.8,42.1,30.06,NW,318,3.0,6.0,97,0.00,,,0.00,meteohub,2013-01-15 15:30:00,
2013-01-15 09:35:00,42.6,41.9,30.06,NW,319,3.0,6.0,97,0.00,,,0.00,meteohub,2013-01-15 15:35:00,
2013-01-15 09:40:00,42.8,42.1,30.06,NW,320,4.0,6.0,97,0.00,,,0.00,meteohub,2013-01-15 15:40:00,
2013-01-15 09:45:00,42.8,42.1,30.06,NW,320,3.0,5.0,97,0.00,,,0.00,meteohub,2013-01-15 15:45:00,
2013-01-15 09:50:00,43.0,42.3,30.05,NW,320,2.0,5.0,97,0.00,,,0.00,meteohub,2013-01-15 15:50:00,
2013-01-15 09:55:00,43.0,42.3,30.05,NW,320,3.0,4.0,97,0.00,,,0.00,meteohub,2013-01-15 15:55:00,
2013-01-15 10:00:00,43.2,42.4,30.05,NW,320,3.0,5.0,97,0.00,,,0.00,meteohub,2013-01-15 16:00:00,
2013-01-15 10:05:00,43.2,42.4,30.05,NW,320,2.0,5.0,97,0.00,,,0.00,meteohub,2013-01-15 16:05:00,
2013-01-15 10:10:00,43.3,42.6,30.05,NW,320,5.0,5.0,97,0.00,,,0.00,meteohub,2013-01-15 16:10:00,
2013-01-15 10:15:00,43.3,42.6,30.05,NW,320,4.0,7.0,97,0.00,,,0.00,meteohub,2013-01-15 16:15:00,
2013-01-15 10:20:00,43.3,42.6,30.05,NW,320,3.0,7.0,97,0.00,,,0.00,meteohub,2013-01-15 16:20:00,
2013-01-15 10:25:00,43.3,42.6,30.06,NW,320,6.0,7.0,97,0.00,,,0.00,meteohub,2013-01-15 16:25:00,
2013-01-15 10:30:00,43.3,42.6,30.06,NW,320,3.0,7.0,97,0.00,,,0.00,meteohub,2013-01-15 16:30:00,
2013-01-15 10:35:00,43.3,42.6,30.05,NW,320,4.0,7.0,97,0.00,,,0.00,meteohub,2013-01-15 16:35:00,
2013-01-15 10:40:00,43.5,42.8,30.05,NW,320,3.0,6.0,97,0.00,,,0.00,meteohub,2013-01-15 16:40:00,
2013-01-15 10:45:00,43.3,42.6,30.06,NW,315,4.0,6.0,97,0.00,,,0.00,meteohub,2013-01-15 16:45:00,
2013-01-15 10:50:00,43.3,42.6,30.06,NW,309,3.0,6.0,97,0.00,,,0.00,meteohub,2013-01-15 16:50:00,
2013-01-15 10:55:00,43.2,42.4,30.05,NW,310,5.0,6.0,97,0.00,,,0.00,meteohub,2013-01-15 16:55:00,
2013-01-15 11:00:00,43.2,42.4,30.06,NW,312,5.0,6.0,97,0.00,,,0.00,meteohub,2013-01-15 17:00:00,
2013-01-15 11:05:00,43.2,42.4,30.05,NW,313,5.0,7.0,97,0.00,,,0.00,meteohub,2013-01-15 17:05:00,
2013-01-15 11:10:00,43.3,42.6,30.04,NW,313,3.0,8.0,97,0.00,,,0.00,meteohub,2013-01-15 17:10:00,
2013-01-15 11:15:00,43.3,42.6,30.04,NW,313,5.0,8.0,97,0.00,,,0.00,meteohub,2013-01-15 17:15:00,
2013-01-15 11:21:00,43.3,42.6,30.04,NW,313,4.0,7.0,97,0.00,,,0.00,meteohub,2013-01-15 17:21:00,
2013-01-15 11:26:00,43.3,42.6,30.03,NW,315,6.0,7.0,97,0.00,,,0.00,meteohub,2013-01-15 17:26:00,
2013-01-15 11:31:00,43.5,42.8,30.03,NW,316,7.0,7.0,97,0.00,,,0.00,meteohub,2013-01-15 17:31:00,
2013-01-15 11:36:00,43.3,42.6,30.03,NW,321,4.0,8.0,97,0.00,,,0.00,meteohub,2013-01-15 17:36:00,
2013-01-15 11:41:00,43.3,42.6,30.03,NW,325,4.0,8.0,97,0.00,,,0.00,meteohub,2013-01-15 17:41:00,
2013-01-15 11:46:00,43.3,42.6,30.02,NW,325,5.0,8.0,97,0.00,,,0.00,meteohub,2013-01-15 17:46:00,
2013-01-15 11:51:00,43.3,42.6,30.01,NNW,327,5.0,7.0,97,0.00,,,0.00,meteohub,2013-01-15 17:51:00,
2013-01-15 11:56:00,43.3,42.6,30.01,NNW,328,4.0,7.0,97,0.00,,,0.00,meteohub,2013-01-15 17:56:00,
2013-01-15 12:01:00,43.3,42.6,30.01,NNW,329,4.0,7.0,97,0.00,,,0.00,meteohub,2013-01-15 18:01:00,
2013-01-15 12:06:00,43.3,42.6,30.00,NNW,329,5.0,7.0,97,0.00,,,0.00,meteohub,2013-01-15 18:06:00,
2013-01-15 12:11:00,43.3,42.6,30.00,NNW,330,2.0,7.0,97,0.00,,,0.00,meteohub,2013-01-15 18:11:00,
2013-01-15 12:16:00,43.3,42.6,30.00,NNW,330,2.0,7.0,97,0.00,,,0.00,meteohub,2013-01-15 18:16:00,
2013-01-15 12:21:00,43.5,42.8,30.00,NNW,330,5.0,6.0,97,0.00,,,0.00,meteohub,2013-01-15 18:21:00,
2013-01-15 12:26:00,43.7,43.0,30.01,NW,312,6.0,6.0,97,0.00,,,0.00,meteohub,2013-01-15 18:26:00,
2013-01-15 12:31:00,43.5,42.8,30.01,NW,323,4.0,8.0,97,0.00,,,0.00,meteohub,2013-01-15 18:31:00,
2013-01-15 12:36:00,43.9,43.2,30.00,NW,315,6.0,9.0,97,0.00,,,0.00,meteohub,2013-01-15 18:36:00,
2013-01-15 12:41:00,43.9,43.2,30.00,NW,309,4.0,9.0,97,0.00,,,0.00,meteohub,2013-01-15 18:41:00,
2013-01-15 12:46:00,43.5,42.8,30.00,NW,316,4.0,9.0,97,0.00,,,0.00,meteohub,2013-01-15 18:46:00,
2013-01-15 12:51:00,43.7,43.0,29.99,NW,313,4.0,9.0,97,0.00,,,0.00,meteohub,2013-01-15 18:51:00,
2013-01-15 12:56:00,43.5,42.8,29.99,NW,314,7.0,9.0,97,0.00,,,0.00,meteohub,2013-01-15 18:56:00,
2013-01-15 13:01:00,43.5,42.8,29.99,WNW,299,7.0,10.0,97,0.00,,,0.00,meteohub,2013-01-15 19:01:00,
2013-01-15 13:06:00,43.5,42.8,29.99,NW,319,10.0,10.0,97,0.00,,,0.00,meteohub,2013-01-15 19:06:00,
2013-01-15 13:11:00,43.5,42.8,29.98,NW,316,6.0,11.0,97,0.00,,,0.00,meteohub,2013-01-15 19:11:00,
2013-01-15 13:16:00,43.3,42.6,29.99,NW,317,4.0,11.0,97,0.00,,,0.00,meteohub,2013-01-15 19:16:00,
2013-01-15 13:21:00,43.3,42.6,29.99,NW,324,6.0,11.0,97,0.00,,,0.00,meteohub,2013-01-15 19:21:00,
2013-01-15 13:26:00,43.3,42.6,29.98,NNW,329,7.0,11.0,97,0.00,,,0.00,meteohub,2013-01-15 19:26:00,
2013-01-15 13:31:00,43.3,42.6,29.98,NNW,330,6.0,12.0,97,0.00,,,0.00,meteohub,2013-01-15 19:31:00,
2013-01-15 13:36:00,43.3,42.6,29.98,NNW,348,7.0,12.0,97,0.00,,,0.00,meteohub,2013-01-15 19:36:00,
2013-01-15 13:41:00,43.3,42.6,29.98,NW,325,6.0,10.0,97,0.00,,,0.00,meteohub,2013-01-15 19:41:00,
2013-01-15 13:46:00,43.5,42.8,29.98,NW,322,10.0,10.0,97,0.00,,,0.00,meteohub,2013-01-15 19:46:00,
2013-01-15 13:51:00,43.3,42.6,29.98,NW,319,6.0,12.0,97,0.00,,,0.00,meteohub,2013-01-15 19:51:00,
2013-01-15 13:56:00,43.2,42.4,29.98,NNW,328,8.0,12.0,97,0.00,,,0.00,meteohub,2013-01-15 19:56:00,
2013-01-15 14:01:00,43.2,42.4,29.98,NW,315,9.0,12.0,97,0.00,,,0.00,meteohub,2013-01-15 20:01:00,
2013-01-15 14:06:00,43.2,42.4,29.98,NW,304,7.0,12.0,97,0.00,,,0.00,meteohub,2013-01-15 20:06:00,
2013-01-15 14:11:00,43.2,42.4,29.97,NW,323,9.0,13.0,97,0.00,,,0.00,meteohub,2013-01-15 20:11:00,
2013-01-15 14:16:00,43.0,42.3,29.97,NNW,327,5.0,13.0,97,0.00,,,0.00,meteohub,2013-01-15 20:16:00,
2013-01-15 14:21:00,43.2,42.4,29.98,NNW,336,8.0,13.0,97,0.00,,,0.00,meteohub,2013-01-15 20:21:00,
2013-01-15 14:26:00,43.3,42.6,29.98,WNW,300,6.0,13.0,97,0.00,,,0.00,meteohub,2013-01-15 20:26:00,
2013-01-15 14:31:00,43.2,42.4,29.99,NW,321,11.0,12.0,97,0.00,,,0.00,meteohub,2013-01-15 20:31:00,
2013-01-15 14:36:00,43.0,42.3,29.98,NW,315,11.0,13.0,97,0.00,,,0.00,meteohub,2013-01-15 20:36:00,
2013-01-15 14:41:00,43.0,42.3,29.98,NW,314,12.0,13.0,97,0.00,,,0.00,meteohub,2013-01-15 20:41:00,
2013-01-15 14:46:00,43.0,42.3,29.98,NNW,332,11.0,13.0,97,0.00,,,0.00,meteohub,2013-01-15 20:46:00,
2013-01-15 14:51:00,43.0,42.3,29.98,NW,312,10.0,13.0,97,0.00,,,0.00,meteohub,2013-01-15 20:51:00,
2013-01-15 14:56:00,43.0,42.3,29.98,NW,322,9.0,13.0,97,0.00,,,0.00,meteohub,2013-01-15 20:56:00,
2013-01-15 15:01:00,43.0,42.3,29.98,NW,321,9.0,13.0,97,0.00,,,0.00,meteohub,2013-01-15 21:01:00,
2013-01-15 15:06:00,43.0,42.3,29.98,NNW,331,4.0,13.0,97,0.00,,,0.00,meteohub,2013-01-15 21:06:00,
2013-01-15 15:11:00,43.0,42.3,29.98,NW,320,8.0,12.0,97,0.00,,,0.00,meteohub,2013-01-15 21:11:00,
2013-01-15 15:16:00,43.0,42.3,29.97,NW,304,5.0,12.0,97,0.00,,,0.00,meteohub,2013-01-15 21:16:00,
2013-01-15 15:21:00,42.8,42.1,29.98,NNW,330,8.0,11.0,97,0.00,,,0.00,meteohub,2013-01-15 21:21:00,
2013-01-15 15:26:00,42.6,41.9,29.97,NNW,339,8.0,12.0,97,0.00,,,0.00,meteohub,2013-01-15 21:26:00,
2013-01-15 15:31:00,42.6,41.9,29.98,NNW,335,6.0,12.0,97,0.00,,,0.00,meteohub,2013-01-15 21:31:00,
2013-01-15 15:37:00,42.8,42.1,29.98,NNW,331,6.0,12.0,97,0.00,,,0.00,meteohub,2013-01-15 21:37:00,
2013-01-15 15:42:00,42.8,42.1,29.98,NW,319,5.0,11.0,97,0.00,,,0.00,meteohub,2013-01-15 21:42:00,
2013-01-15 15:47:00,42.6,41.9,29.99,NNW,331,7.0,11.0,97,0.00,,,0.00,meteohub,2013-01-15 21:47:00,
2013-01-15 15:52:00,42.6,41.9,29.99,NW,315,6.0,10.0,97,0.00,,,0.00,meteohub,2013-01-15 21:52:00,
2013-01-15 15:57:00,42.6,41.9,29.99,NNW,336,6.0,11.0,97,0.00,,,0.00,meteohub,2013-01-15 21:57:00,
2013-01-15 16:02:00,42.6,41.9,29.99,NW,325,6.0,11.0,97,0.00,,,0.00,meteohub,2013-01-15 22:02:00,
2013-01-15 16:07:00,42.6,41.9,30.00,NW,310,7.0,12.0,97,0.00,,,0.00,meteohub,2013-01-15 22:07:00,
2013-01-15 16:12:00,42.6,41.9,30.00,NW,313,8.0,12.0,97,0.00,,,0.00,meteohub,2013-01-15 22:12:00,
2013-01-15 16:17:00,42.6,41.9,30.01,NW,325,7.0,13.0,97,0.00,,,0.00,meteohub,2013-01-15 22:17:00,
2013-01-15 16:22:00,42.4,41.7,30.01,NW,312,7.0,13.0,97,0.00,,,0.00,meteohub,2013-01-15 22:22:00,
2013-01-15 16:27:00,42.4,41.7,30.01,NW,316,7.0,13.0,97,0.00,,,0.00,meteohub,2013-01-15 22:27:00,
2013-01-15 16:32:00,42.4,41.7,30.01,NW,312,5.0,12.0,97,0.00,,,0.00,meteohub,2013-01-15 22:32:00,
2013-01-15 16:37:00,42.4,41.7,30.01,NW,311,9.0,11.0,97,0.00,,,0.00,meteohub,2013-01-15 22:37:00,
2013-01-15 16:42:00,42.4,41.7,30.00,NNW,333,7.0,11.0,97,0.00,,,0.00,meteohub,2013-01-15 22:42:00,
2013-01-15 16:47:00,42.4,41.7,30.00,NW,319,4.0,9.0,97,0.00,,,0.00,meteohub,2013-01-15 22:47:00,
2013-01-15 16:52:00,42.4,41.7,29.99,NNW,333,4.0,9.0,97,0.00,,,0.00,meteohub,2013-01-15 22:52:00,
2013-01-15 16:56:00,42.4,41.7,30.01,NNW,327,6.0,8.0,97,0.00,,,0.00,meteohub,2013-01-15 22:56:00,
2013-01-15 17:02:00,42.3,41.5,30.00,NW,320,9.0,10.0,97,0.00,,,0.00,meteohub,2013-01-15 23:02:00,
2013-01-15 17:07:00,42.3,41.5,30.00,NNW,333,6.0,11.0,97,0.00,,,0.00,meteohub,2013-01-15 23:07:00,
2013-01-15 17:12:00,42.3,41.5,30.00,NW,307,6.0,12.0,97,0.00,,,0.00,meteohub,2013-01-15 23:12:00,
2013-01-15 17:17:00,42.3,41.5,30.01,NW,323,8.0,12.0,97,0.00,,,0.00,meteohub,2013-01-15 23:17:00,
2013-01-15 17:22:00,42.1,41.4,30.00,NNW,336,7.0,13.0,97,0.00,,,0.00,meteohub,2013-01-15 23:22:00,
2013-01-15 17:27:00,42.1,41.4,30.00,NNW,329,9.0,13.0,97,0.00,,,0.00,meteohub,2013-01-15 23:27:00,
2013-01-15 17:32:00,42.1,41.4,30.00,NNW,330,6.0,13.0,97,0.00,,,0.00,meteohub,2013-01-15 23:32:00,
2013-01-15 17:37:00,42.1,41.4,30.00,NNW,338,5.0,11.0,97,0.00,,,0.00,meteohub,2013-01-15 23:37:00,
2013-01-15 17:42:00,42.1,41.4,30.01,NNW,329,6.0,11.0,97,0.00,,,0.00,meteohub,2013-01-15 23:42:00,
2013-01-15 17:47:00,42.1,41.4,30.00,NNW,339,4.0,11.0,97,0.00,,,0.00,meteohub,2013-01-15 23:47:00,
2013-01-15 17:52:00,42.1,41.4,30.00,NNW,337,6.0,10.0,97,0.00,,,0.00,meteohub,2013-01-15 23:52:00,
2013-01-15 17:57:00,42.1,41.4,30.00,NNW,327,4.0,10.0,97,0.00,,,0.00,meteohub,2013-01-15 23:57:00,
2013-01-15 18:02:00,42.1,41.4,29.99,NNW,341,6.0,10.0,97,0.00,,,0.00,meteohub,2013-01-16 00:02:00,
2013-01-15 18:07:00,42.1,41.4,30.00,NNW,348,4.0,11.0,97,0.00,,,0.00,meteohub,2013-01-16 00:07:00,
2013-01-15 18:12:00,41.9,41.2,29.99,North,0,3.0,11.0,97,0.00,,,0.00,meteohub,2013-01-16 00:12:00,
2013-01-15 18:16:00,42.1,41.4,29.99,North,0,1.0,7.0,97,0.00,,,0.00,meteohub,2013-01-16 00:16:00,
2013-01-15 18:22:00,42.1,41.4,29.99,North,349,5.0,6.0,97,0.00,,,0.00,meteohub,2013-01-16 00:22:00,
2013-01-15 18:27:00,42.3,41.5,30.00,NW,319,4.0,6.0,97,0.00,,,0.00,meteohub,2013-01-16 00:27:00,
2013-01-15 18:32:00,42.3,41.5,30.00,NW,321,3.0,8.0,97,0.00,,,0.00,meteohub,2013-01-16 00:32:00,
2013-01-15 18:37:00,42.3,41.5,30.01,NW,318,5.0,8.0,97,0.00,,,0.00,meteohub,2013-01-16 00:37:00,
2013-01-15 18:42:00,42.3,41.5,30.01,NW,317,6.0,8.0,97,0.00,,,0.00,meteohub,2013-01-16 00:42:00,
2013-01-15 18:47:00,42.3,41.5,30.01,NW,320,8.0,8.0,97,0.00,,,0.00,meteohub,2013-01-16 00:47:00,
2013-01-15 18:52:00,42.3,41.5,30.01,NW,314,6.0,10.0,97,0.00,,,0.00,meteohub,2013-01-16 00:52:00,
2013-01-15 18:57:00,42.3,41.5,30.00,NW,325,5.0,10.0,97,0.00,,,0.00,meteohub,2013-01-16 00:57:00,
2013-01-15 19:02:00,42.1,41.4,30.01,NW,314,3.0,10.0,97,0.00,,,0.00,meteohub,2013-01-16 01:02:00,
2013-01-15 19:07:00,42.1,41.4,30.01,NW,321,7.0,10.0,97,0.00,,,0.00,meteohub,2013-01-16 01:07:00,
2013-01-15 19:12:00,41.7,41.0,30.01,NW,317,8.0,10.0,97,0.00,,,0.00,meteohub,2013-01-16 01:12:00,
2013-01-15 19:17:00,41.7,41.0,30.01,NW,317,8.0,10.0,97,0.00,,,0.00,meteohub,2013-01-16 01:17:00,
2013-01-15 19:22:00,41.7,41.0,30.01,NNW,334,9.0,10.0,97,0.00,,,0.00,meteohub,2013-01-16 01:22:00,
2013-01-15 19:27:00,41.7,41.0,30.03,WSW,247,8.0,10.0,97,0.00,,,0.00,meteohub,2013-01-16 01:27:00,
2013-01-15 19:32:00,41.7,41.0,30.03,WNW,300,7.0,11.0,97,0.00,,,0.00,meteohub,2013-01-16 01:32:00,
2013-01-15 19:37:00,41.7,41.0,30.02,NW,323,9.0,11.0,97,0.00,,,0.00,meteohub,2013-01-16 01:37:00,
2013-01-15 19:42:00,41.5,40.8,30.02,WNW,299,10.0,11.0,97,0.00,,,0.00,meteohub,2013-01-16 01:42:00,
2013-01-15 19:47:00,41.5,40.8,30.02,NNW,327,11.0,12.0,97,0.00,,,0.00,meteohub,2013-01-16 01:47:00,
2013-01-15 19:52:00,41.5,40.8,30.03,NW,317,6.0,12.0,97,0.00,,,0.00,meteohub,2013-01-16 01:52:00,
2013-01-15 19:57:00,41.5,40.8,30.02,NW,315,8.0,12.0,97,0.00,,,0.00,meteohub,2013-01-16 01:57:00,
2013-01-15 20:02:00,41.4,40.6,30.02,NNW,327,8.0,12.0,97,0.00,,,0.00,meteohub,2013-01-16 02:02:00,
2013-01-15 20:07:00,41.2,40.5,30.02,NW,306,9.0,12.0,97,0.00,,,0.00,meteohub,2013-01-16 02:07:00,
2013-01-15 20:12:00,41.2,40.5,30.02,NNW,327,8.0,12.0,97,0.00,,,0.00,meteohub,2013-01-16 02:12:00,
2013-01-15 20:17:00,40.8,39.7,30.03,NW,308,7.0,11.0,96,0.00,,,0.00,meteohub,2013-01-16 02:17:00,
2013-01-15 20:22:00,41.0,40.3,30.03,NW,317,5.0,11.0,97,0.00,,,0.00,meteohub,2013-01-16 02:22:00,
2013-01-15 20:27:00,41.0,39.9,30.02,NW,306,9.0,11.0,96,0.00,,,0.00,meteohub,2013-01-16 02:27:00,
2013-01-15 20:32:00,41.0,39.9,30.02,NW,317,7.0,11.0,96,0.00,,,0.00,meteohub,2013-01-16 02:32:00,
2013-01-15 20:37:00,40.8,39.7,30.01,NW,317,9.0,11.0,96,0.00,,,0.00,meteohub,2013-01-16 02:37:00,
2013-01-15 20:42:00,40.8,39.7,30.01,NW,323,6.0,12.0,96,0.00,,,0.00,meteohub,2013-01-16 02:42:00,
2013-01-15 20:47:00,40.8,39.7,30.02,NW,311,6.0,12.0,96,0.00,,,0.00,meteohub,2013-01-16 02:47:00,
2013-01-15 20:52:00,40.8,39.7,30.02,NW,321,5.0,12.0,96,0.00,,,0.00,meteohub,2013-01-16 02:52:00,
2013-01-15 20:57:00,40.8,39.7,30.02,NW,315,6.0,12.0,96,0.00,,,0.00,meteohub,2013-01-16 02:57:00,
2013-01-15 21:02:00,40.8,39.7,30.02,NW,319,5.0,9.0,96,0.00,,,0.00,meteohub,2013-01-16 03:02:00,
2013-01-15 21:07:00,40.8,39.7,30.02,NW,326,8.0,9.0,96,0.00,,,0.00,meteohub,2013-01-16 03:07:00,
2013-01-15 21:12:00,40.8,39.7,30.02,NW,311,9.0,9.0,96,0.00,,,0.00,meteohub,2013-01-16 03:12:00,
2013-01-15 21:17:00,40.8,39.7,30.02,NW,307,5.0,10.0,96,0.00,,,0.00,meteohub,2013-01-16 03:17:00,
2013-01-15 21:22:00,40.8,39.7,30.02,NW,305,9.0,11.0,96,0.00,,,0.00,meteohub,2013-01-16 03:22:00,
2013-01-15 21:27:00,40.6,39.6,30.03,NW,313,6.0,13.0,96,0.00,,,0.00,meteohub,2013-01-16 03:27:00,
2013-01-15 21:32:00,40.5,39.4,30.03,NW,315,8.0,13.0,96,0.00,,,0.00,meteohub,2013-01-16 03:32:00,
2013-01-15 21:37:00,40.5,39.4,30.03,NW,309,11.0,13.0,96,0.00,,,0.00,meteohub,2013-01-16 03:37:00,
2013-01-15 21:42:00,40.5,39.4,30.02,NW,326,7.0,12.0,96,0.00,,,0.00,meteohub,2013-01-16 03:42:00,
2013-01-15 21:47:00,40.1,39.0,30.02,NW,310,8.0,12.0,96,0.00,,,0.00,meteohub,2013-01-16 03:47:00,
2013-01-15 21:52:00,39.9,38.8,30.01,NNW,339,7.0,12.0,96,0.00,,,0.00,meteohub,2013-01-16 03:52:00,
2013-01-15 21:57:00,39.9,38.7,30.01,NW,319,8.0,13.0,95,0.00,,,0.00,meteohub,2013-01-16 03:57:00,
2013-01-15 22:02:00,39.9,38.8,30.02,NW,324,8.0,13.0,96,0.00,,,0.00,meteohub,2013-01-16 04:02:00,
2013-01-15 22:07:00,39.9,38.8,30.01,NW,320,9.0,11.0,96,0.00,,,0.00,meteohub,2013-01-16 04:07:00,
2013-01-15 22:12:00,39.9,38.8,30.02,NNW,331,9.0,10.0,96,0.00,,,0.00,meteohub,2013-01-16 04:12:00,
2013-01-15 22:17:00,39.9,38.8,30.02,WNW,295,7.0,12.0,96,0.00,,,0.00,meteohub,2013-01-16 04:17:00,
2013-01-15 22:22:00,39.9,38.8,30.02,NW,313,8.0,12.0,96,0.00,,,0.00,meteohub,2013-01-16 04:22:00,
2013-01-15 22:27:00,39.7,38.7,30.02,NW,320,9.0,12.0,96,0.00,,,0.00,meteohub,2013-01-16 04:27:00,
2013-01-15 22:32:00,39.6,38.5,30.01,NW,319,5.0,11.0,96,0.00,,,0.00,meteohub,2013-01-16 04:32:00,
2013-01-15 22:37:00,39.6,38.5,30.02,NW,308,6.0,11.0,96,0.00,,,0.00,meteohub,2013-01-16 04:37:00,
2013-01-15 22:42:00,39.6,38.5,30.02,WNW,300,5.0,11.0,96,0.00,,,0.00,meteohub,2013-01-16 04:42:00,
2013-01-15 22:47:00,39.6,38.5,30.03,NW,304,8.0,9.0,96,0.00,,,0.00,meteohub,2013-01-16 04:47:00,
2013-01-15 22:52:00,39.6,38.5,30.03,NW,313,6.0,11.0,96,0.00,,,0.00,meteohub,2013-01-16 04:52:00,
2013-01-15 22:57:00,39.6,38.5,30.03,WNW,301,10.0,14.0,96,0.00,,,0.00,meteohub,2013-01-16 04:57:00,
2013-01-15 23:00:00,39.4,38.3,30.04,WNW,300,7.0,14.0,96,0.00,,,0.00,meteohub,2013-01-16 05:00:00,
2013-01-15 23:01:00,39.4,38.3,30.04,NW,312,8.0,14.0,96,0.00,,,0.00,meteohub,2013-01-16 05:01:00,
2013-01-15 23:03:00,39.4,38.3,30.03,WNW,303,10.0,14.0,96,0.00,,,0.00,meteohub,2013-01-16 05:03:00,
2013-01-15 23:08:00,39.4,38.3,30.04,NW,319,10.0,12.0,96,0.00,,,0.00,meteohub,2013-01-16 05:08:00,
2013-01-15 23:13:00,39.2,38.1,30.04,WNW,296,7.0,14.0,96,0.00,,,0.00,meteohub,2013-01-16 05:13:00,
2013-01-15 23:18:00,39.0,37.9,30.03,NW,310,10.0,14.0,96,0.00,,,0.00,meteohub,2013-01-16 05:18:00,
2013-01-15 23:23:00,38.8,37.8,30.04,WNW,300,8.0,13.0,96,0.00,,,0.00,meteohub,2013-01-16 05:23:00,
2013-01-15 23:28:00,38.7,37.6,30.04,NW,306,11.0,16.0,96,0.00,,,0.00,meteohub,2013-01-16 05:28:00,
2013-01-15 23:33:00,38.5,37.4,30.03,NW,315,11.0,16.0,96,0.00,,,0.00,meteohub,2013-01-16 05:33:00,
2013-01-15 23:38:00,38.3,37.2,30.03,NW,315,9.0,16.0,96,0.00,,,0.00,meteohub,2013-01-16 05:38:00,
2013-01-15 23:43:00,38.3,37.2,30.03,NNW,332,12.0,17.0,96,0.00,,,0.00,meteohub,2013-01-16 05:43:00,
2013-01-15 23:48:00,38.1,37.0,30.04,WNW,292,9.0,19.0,96,0.00,,,0.00,meteohub,2013-01-16 05:48:00,
2013-01-15 23:53:00,38.1,37.0,30.04,WNW,303,12.0,19.0,96,0.00,,,0.00,meteohub,2013-01-16 05:53:00,
2013-01-15 23:58:00,38.1,37.0,30.04,NW,304,7.0,19.0,96,0.00,,,0.00,meteohub,2013-01-16 05:58:00,